Location: Saint-Restitut
(44.3351°N, 4.7915°E)
Time: 03:28:16
(UTC+00:00)

Cosmos 1741 Rocket - Pass Details

Date: 03 February 2023
Orbit: 761 x 781 km, 74.0° (Epoch: 27 March)

Event Time Altitude Azimuth Distance (km) Brightness Sun altitude
Rises 18:29:20 0° 187° (S) 3,244 7.4 -17.5°
Reaches altitude 10° 18:31:44 10° 184° (S) 2,323 6.6 -17.9°
Maximum altitude 18:36:54 59° 106° (ESE) 902 4.0 -18.9°
Enters shadow 18:40:23 21° 33° (NNE) 1,703 5.4 -19.5°
